Theta_e
334 330 330 330 330 326 322 319 302 311 307 297 297 299 296 303 302 301 299 301 299 306 307 311 311 311 307 305 305 306 312 308 309 301 302 318 335 340 340 340 341 342 343 344 344 343 344 347 347 346 345 345 346 346 345 345 344 345 345 346 345 346 345 345 345 346 344 343 343 343 342 342 340 339 339 339 338 338 336 336 337 336 336 336 336 338 339 339 339 338 338 337 336 336 336 336 335
331 329 330 332 328 324 314 316 308 302 301 296 297 301 299 301 301 298 298 301 304 305 307 309 310 309 310 307 304 307 313 316 315 317 324 331 334 335 339 340 341 341 342 343 342 340 342 344 346 346 345 345 346 345 344 345 344 344 344 345 345 345 345 345 345 345 345 345 344 343 341 340 340 339 339 339 338 338 337 338 337 337 337 337 337 339 339 339 337 337 337 335 334 335 334 334 334
332 330 329 329 324 321 316 314 299 297 297 293 297 298 303 299 299 300 305 306 307 308 309 311 311 309 308 307 303 304 303 323 320 321 321 331 329 331 338 340 341 342 343 343 340 339 340 342 345 346 343 344 344 345 344 343 342 342 343 344 345 345 345 345 345 345 345 344 343 342 340 340 340 339 339 338 338 338 338 339 338 337 337 337 337 336 335 335 337 337 337 335 336 335 333 333 333
334 332 328 326 317 324 311 308 302 297 295 295 295 301 299 300 301 304 306 307 307 307 310 309 306 314 308 304 307 308 313 314 324 325 323 327 329 334 338 339 341 342 343 343 340 339 339 343 345 345 344 343 343 345 343 343 343 342 342 343 343 344 345 345 345 345 345 344 343 342 342 342 341 340 340 339 339 338 339 338 338 338 336 336 337 336 337 336 335 336 337 335 335 335 334 334 333
332 328 327 327 320 312 313 307 301 300 295 298 295 301 300 301 303 305 305 305 306 306 307 307 309 315 313 309 311 304 308 317 324 327 326 329 336 335 337 338 338 341 341 341 339 339 339 343 344 345 343 343 343 343 344 343 342 342 342 341 342 343 344 344 345 344 344 345 344 343 342 342 341 340 339 339 339 338 338 339 338 337 337 336 337 337 336 336 336 336 336 335 335 335 335 334 333
324 325 332 327 315 317 312 302 299 297 300 304 299 298 301 301 303 305 305 306 308 307 309 305 307 308 309 308 312 310 318 315 322 326 328 331 335 336 338 338 337 338 340 339 339 339 340 342 344 345 344 342 342 342 341 342 342 341 341 340 341 342 344 344 344 344 345 345 345 344 342 341 340 340 340 340 339 338 338 338 338 337 337 337 337 336 336 335 335 336 336 335 334 335 335 333 334
320 320 327 327 320 318 303 299 298 299 302 305 302 300 301 301 304 305 304 305 308 309 309 308 309 307 304 314 315 320 322 324 325 329 335 334 337 337 338 337 336 337 338 338 339 341 341 342 344 345 345 342 341 342 342 341 341 341 341 341 342 342 344 344 344 344 345 345 344 343 343 342 341 341 340 339 339 339 339 339 338 337 337 337 337 336 335 335 335 336 336 336 335 334 334 334 334
325 321 321 313 309 307 300 298 298 301 305 305 304 302 303 303 303 303 303 303 303 302 306 309 310 305 307 314 308 320 328 330 331 336 336 335 336 337 337 335 334 335 338 337 339 341 344 341 343 344 345 343 341 340 341 342 341 341 341 340 342 342 344 345 344 344 343 344 345 344 343 343 342 341 341 340 339 339 339 339 338 337 337 336 336 336 336 335 335 335 335 335 335 335 335 334 333
321 318 327 316 305 309 302 299 299 304 304 304 304 306 309 305 305 303 301 304 304 305 304 307 308 301 307 308 312 319 322 330 334 336 336 336 336 337 337 335 334 335 336 338 342 341 340 340 342 343 344 344 341 340 343 343 343 341 341 342 342 341 343 345 345 343 344 344 343 344 343 343 342 341 340 340 340 339 339 339 338 337 337 336 336 336 336 335 335 335 335 335 334 335 334 334 335
317 318 312 313 311 301 302 301 298 300 303 305 303 304 304 304 304 304 302 303 304 305 306 307 307 304 308 308 313 320 321 332 333 333 335 336 337 337 336 336 335 336 336 341 341 340 340 343 340 342 342 343 342 343 343 343 343 345 344 345 343 341 343 345 345 344 344 343 343 343 344 344 343 342 340 340 340 340 340 339 338 338 337 336 335 336 335 335 335 335 335 334 334 333 333 333 334
310 317 324 310 304 300 299 298 300 302 304 306 305 307 306 304 304 302 305 304 306 304 306 307 306 304 305 311 318 325 328 331 331 330 334 336 337 336 334 336 336 337 335 340 342 341 340 339 342 339 341 341 342 343 344 345 345 345 344 345 344 342 343 345 345 344 344 343 343 343 343 343 343 343 342 341 341 341 339 339 338 337 338 337 337 335 334 334 334 335 334 334 334 333 332 333 333
308 310 319 306 303 302 303 301 304 303 307 306 305 307 306 305 305 302 304 303 303 304 307 307 305 309 304 306 316 322 328 329 331 333 335 336 335 336 335 335 337 337 338 338 339 340 339 339 339 342 338 339 339 341 343 344 344 344 344 345 344 343 343 344 344 344 344 344 342 343 343 343 343 343 342 343 342 342 340 339 338 337 337 337 336 336 334 334 334 335 334 335 334 334 333 334 333
310 313 308 305 304 305 306 305 305 304 303 304 304 306 307 305 302 303 303 305 304 303 304 307 312 309 303 306 318 323 325 329 332 334 335 334 335 335 336 334 336 337 337 337 337 339 339 339 338 339 337 336 336 337 339 342 344 344 345 344 344 343 344 343 344 345 344 344 343 344 343 342 342 343 342 342 341 342 340 341 340 338 337 337 337 335 335 335 334 334 335 335 334 334 334 334 334
314 315 310 304 309 307 305 305 306 302 301 303 305 307 307 304 304 305 304 302 303 302 311 310 309 308 304 314 316 316 323 331 333 334 335 334 335 334 335 336 337 336 337 338 336 336 336 339 338 338 338 336 336 335 335 338 341 343 343 344 344 344 344 344 345 345 344 343 343 343 342 342 342 343 343 342 340 341 339 337 337 339 338 337 336 335 336 336 335 334 335 335 334 334 335 334 334
313 316 311 308 305 305 307 304 304 303 301 304 305 306 305 308 307 307 306 303 305 311 314 313 316 308 303 305 311 315 326 331 333 334 335 335 334 334 335 335 336 336 336 337 336 335 335 336 336 337 337 336 335 336 335 336 337 339 340 341 343 343 343 342 342 341 341 341 341 341 342 342 342 341 341 339 338 338 338 335 334 337 338 338 337 337 336 336 336 335 334 335 335 335 334 334 334
316 313 310 304 302 303 305 306 308 304 304 305 306 306 305 307 309 307 308 308 308 313 310 306 314 306 316 318 317 323 330 332 334 334 334 333 333 334 334 333 335 335 335 336 333 333 334 334 335 336 337 335 334 334 335 337 334 335 336 338 339 338 339 339 337 335 334 335 337 339 339 341 340 341 340 338 336 336 338 333 332 335 339 338 337 336 336 335 335 335 335 335 335 335 334 334 335
320 317 303 302 300 303 305 306 307 301 304 305 307 306 303 304 308 309 310 312 307 307 307 311 309 313 320 323 326 330 332 333 332 333 332 331 330 329 330 330 331 334 335 335 333 333 333 333 334 335 336 336 335 334 334 336 337 333 333 333 334 334 335 336 334 330 327 327 331 331 334 339 340 342 340 338 335 335 331 329 330 333 336 338 338 337 336 335 335 335 335 335 334 334 335 336 335
317 305 302 299 303 303 308 307 309 310 307 304 306 306 305 303 306 307 310 308 307 308 307 310 315 316 323 326 330 332 332 331 332 330 330 329 330 328 328 327 327 329 332 332 334 333 332 333 333 334 335 335 335 336 337 337 336 335 335 333 336 334 331 331 333 338 340 338 328 333 337 338 339 340 340 340 337 335 331 328 328 331 334 337 338 338 337 337 336 336 336 336 335 335 335 330 330
306 303 302 299 303 307 312 312 312 311 310 311 309 309 308 306 307 307 303 303 304 303 307 308 310 318 321 325 328 330 330 330 330 329 328 327 328 328 328 328 327 327 328 330 331 332 333 333 333 334 335 336 335 335 338 337 335 336 336 336 336 333 336 336 336 336 337 337 338 338 337 338 338 338 339 340 340 330 334 327 328 330 333 334 335 337 338 338 338 337 337 337 336 335 331 329 329
307 303 299 301 307 308 311 313 314 314 314 311 312 310 310 310 309 308 306 303 305 303 304 305 308 314 317 323 326 327 328 329 329 328 327 327 327 327 326 327 327 327 328 328 329 333 333 332 332 333 333 335 335 335 336 335 335 335 334 333 334 336 334 335 334 334 336 336 338 338 336 336 337 338 342 343 343 337 333 325 326 328 330 331 332 334 335 334 336 337 336 335 334 332 330 329 329
307 303 299 302 307 306 309 312 314 315 315 313 312 308 310 311 312 309 308 303 304 305 308 307 307 310 316 321 325 325 326 327 327 327 327 327 327 328 327 327 327 327 328 329 329 331 331 332 332 332 333 335 334 334 334 333 334 332 331 331 331 331 332 331 332 333 333 334 335 336 336 334 336 336 338 338 337 337 334 332 330 330 331 331 327 330 331 332 332 331 332 332 330 330 330 330 328
307 303 305 305 305 304 309 313 313 313 315 314 312 310 309 312 311 309 308 304 302 305 309 310 310 310 318 319 324 324 324 325 326 327 326 327 327 327 328 329 329 329 329 328 329 330 331 332 332 332 332 332 334 334 334 333 333 330 330 330 330 330 331 330 330 331 332 332 333 334 333 333 334 334 333 335 337 336 335 333 333 333 333 333 331 330 332 331 331 331 331 331 331 331 330 329 329
301 304 305 306 306 304 308 310 312 313 312 311 310 312 313 309 308 309 308 307 309 311 311 311 312 313 321 322 324 322 323 323 325 326 327 327 328 328 329 330 329 328 329 329 330 331 332 332 332 332 332 332 333 334 333 332 331 331 330 330 329 329 329 330 328 329 330 331 331 331 331 329 331 332 331 332 332 333 332 333 334 334 334 334 334 332 332 332 331 332 331 330 332 331 330 329 326
304 301 305 305 306 306 310 309 312 311 311 310 313 314 310 309 304 310 309 310 312 311 312 311 313 322 322 322 322 322 323 323 323 326 328 328 329 329 329 329 330 330 329 330 331 331 330 332 332 332 332 332 331 333 332 331 331 331 330 328 329 327 328 328 328 329 330 330 331 330 329 329 329 328 330 330 330 331 330 331 332 332 332 332 333 333 332 331 329 328 328 327 328 329 328 325 324
302 301 304 305 306 307 309 308 308 309 311 312 312 309 309 309 309 311 309 310 311 311 311 310 311 319 322 323 322 321 322 324 323 324 326 327 329 330 330 328 329 330 330 330 330 331 331 332 332 332 332 332 332 332 330 330 330 330 330 328 328 328 328 328 329 329 329 328 330 330 329 328 327 328 327 328 328 329 329 330 329 328 329 329 330 329 329 328 328 326 327 327 326 325 324 324 324
304 303 306 306 306 306 306 308 309 309 310 311 309 308 310 311 313 310 312 311 312 312 310 310 311 313 318 322 321 321 321 322 323 323 324 325 327 328 329 329 329 330 331 331 330 330 332 332 332 332 332 332 331 331 330 329 329 329 329 328 329 327 327 329 328 328 328 328 328 329 329 328 327 326 327 328 327 327 326 328 328 327 326 327 328 328 326 326 326 325 326 326 324 323 323 324 323
306 306 305 304 305 305 305 305 308 309 308 309 307 307 308 312 310 305 312 313 314 314 310 311 310 310 312 314 319 320 321 322 323 324 323 324 325 326 328 329 328 329 330 330 330 330 331 331 331 331 332 330 331 331 330 330 329 329 328 328 329 328 327 328 329 328 328 328 328 329 329 329 329 328 327 327 327 327 327 327 326 326 325 326 326 327 328 327 326 325 325 324 324 323 323 324 323
306 305 304 305 306 306 306 305 306 307 306 308 307 305 308 310 309 307 311 314 314 313 313 310 310 309 310 312 314 318 319 322 323 323 322 323 324 326 326 328 328 328 328 329 331 331 331 331 331 331 331 331 331 331 330 330 330 329 329 329 329 328 328 328 328 328 326 327 328 328 330 330 328 328 327 327 327 327 326 327 326 326 325 325 327 326 326 327 326 326 326 325 323 323 323 323 323
304 304 299 301 303 302 305 304 306 307 305 307 307 305 304 306 305 310 312 314 314 312 310 309 310 310 310 311 311 315 316 318 322 323 324 324 326 327 326 328 329 328 328 330 331 331 330 331 331 331 332 331 331 331 331 330 330 330 329 329 329 330 328 328 328 328 328 328 328 329 329 330 329 328 327 327 327 326 326 326 326 326 326 326 326 326 326 326 325 324 324 323 324 323 323 322 322
305 303 299 298 299 298 303 305 305 304 305 306 306 292 296 302 307 310 313 313 313 312 309 308 308 309 310 310 310 312 316 317 319 322 324 325 326 327 326 328 329 329 327 328 330 331 332 333 333 332 331 331 331 332 331 331 330 330 330 330 329 329 328 328 328 328 328 327 328 328 329 329 328 328 327 326 327 326 326 326 326 326 327 326 326 326 325 325 324 324 324 324 323 323 322 322 320
298 300 300 294 292 292 302 303 303 300 304 305 306 293 295 300 305 309 312 313 312 311 311 310 310 310 310 310 309 312 317 318 319 322 324 326 327 327 327 328 329 329 328 328 329 330 331 332 332 332 331 331 330 331 330 331 331 330 330 330 329 329 329 329 328 328 328 328 328 328 329 328 328 328 327 326 326 326 325 324 325 326 327 326 325 325 325 325 325 324 322 323 323 322 323 322 322
300 294 291 295 292 293 299 304 303 299 303 306 303 294 295 299 303 307 311 311 311 310 311 312 312 311 311 310 310 312 315 319 320 322 325 326 327 327 328 328 330 330 329 329 329 329 330 331 330 330 330 330 331 331 331 331 331 331 330 329 330 329 329 329 328 328 328 328 328 327 329 328 328 327 327 326 325 325 325 324 325 325 326 326 325 325 325 324 323 324 323 323 321 320 321 321 321
297 294 290 290 293 293 295 300 304 304 303 304 302 294 297 298 304 306 307 310 310 310 310 311 313 313 311 310 310 312 314 317 320 321 324 325 325 325 327 328 328 329 330 329 329 329 329 330 330 330 330 330 331 331 331 330 331 331 331 330 331 330 329 329 329 328 328 327 327 326 327 328 328 327 327 326 325 324 325 325 324 325 326 325 324 324 324 324 324 324 322 322 321 319 319 319 320
291 295 291 292 291 292 292 299 302 304 302 299 302 298 298 299 300 304 306 306 307 309 309 310 312 313 312 310 310 312 314 314 318 319 321 325 324 325 326 326 327 329 329 329 330 330 330 331 331 330 331 330 331 332 331 331 331 331 331 331 328 330 330 330 329 328 327 327 327 326 326 327 327 327 327 326 325 324 324 324 324 324 325 325 324 324 324 324 323 323 321 321 322 321 320 319 319
288 290 290 291 293 293 292 294 299 302 302 298 298 298 299 300 302 303 303 306 305 305 309 310 311 312 312 311 310 310 312 312 315 320 321 322 323 324 324 326 326 327 329 329 330 330 330 330 331 329 330 331 331 332 331 332 332 331 331 331 330 330 330 331 330 329 328 328 328 327 326 327 326 327 326 326 325 325 324 324 324 324 324 324 323 323 323 323 322 322 321 321 322 322 320 320 320
290 291 291 293 290 291 291 296 300 301 298 297 297 296 298 301 302 303 304 303 303 304 306 309 310 311 312 312 311 311 311 312 314 319 322 321 323 325 324 325 326 327 328 329 328 330 330 329 330 330 330 331 331 331 331 331 330 329 328 328 329 328 329 329 330 330 330 329 329 328 327 327 326 326 326 326 326 325 324 323 324 324 324 324 323 322 321 321 321 321 321 321 320 320 321 321 321
295 294 294 292 292 294 297 297 300 301 298 297 298 298 299 300 301 303 304 303 302 302 306 307 308 309 310 311 312 312 312 312 315 316 320 322 323 325 326 325 325 326 326 327 328 328 329 329 329 329 330 331 330 330 330 330 329 328 328 328 328 329 329 329 329 330 330 330 329 329 328 327 327 326 326 326 325 324 325 324 324 324 325 324 323 323 323 322 323 322 321 321 320 319 319 320 320
294 293 292 290 292 290 295 296 300 300 296 294 296 296 297 298 300 301 303 303 301 301 305 307 307 307 308 308 310 311 313 316 317 317 320 321 322 325 326 326 324 325 325 325 326 327 328 328 328 329 329 330 330 330 330 330 330 329 328 328 329 329 328 328 328 329 330 330 329 329 328 328 327 327 325 326 326 325 324 324 324 324 325 324 324 324 323 321 322 322 322 320 321 320 319 319 320
295 292 291 290 290 294 296 296 297 299 297 293 295 294 295 298 299 301 302 301 303 303 304 307 307 307 306 307 307 309 311 313 316 321 320 321 323 325 326 326 326 326 326 325 326 326 326 327 327 328 329 328 329 329 329 330 330 330 329 328 328 327 329 329 329 328 329 329 329 328 328 328 328 327 326 326 326 326 325 324 324 325 325 324 323 323 323 322 323 322 321 320 318 320 320 321 320
293 292 290 288 292 290 286 293 295 296 296 293 294 292 294 297 300 300 302 302 302 304 305 305 306 305 305 306 307 307 309 311 313 317 318 319 320 321 322 323 325 326 326 326 326 326 327 326 326 327 328 328 328 328 327 329 329 329 329 328 328 328 326 327 328 328 328 328 327 328 328 328 328 328 327 326 326 327 326 325 325 325 325 325 324 323 322 322 322 322 322 321 320 318 318 319 321
293 293 292 290 291 292 291 291 294 295 296 297 293 292 292 294 294 296 300 302 302 303 304 305 305 306 307 306 308 309 308 309 312 314 317 317 319 319 319 321 322 323 323 324 326 326 327 327 327 327 327 328 328 327 326 328 328 327 328 327 326 327 325 325 326 325 326 326 327 327 328 329 329 328 328 328 326 327 327 326 325 325 325 325 325 324 323 323 323 323 322 322 322 319 317 318 319
289 293 293 293 294 293 293 294 292 290 288 293 294 284 285 291 294 295 297 299 300 302 302 303 303 305 306 305 305 308 310 310 313 314 315 317 317 318 319 319 319 319 320 321 324 325 326 327 328 328 328 327 327 327 327 327 326 327 326 324 323 322 322 321 323 324 325 325 326 328 328 329 329 328 328 328 328 326 327 327 326 325 325 325 325 324 324 323 323 323 323 323 322 322 320 318 316
288 289 296 295 294 294 293 292 291 285 282 291 294 284 281 288 290 293 296 297 297 300 301 303 304 304 305 306 305 306 308 309 312 314 314 314 316 317 318 320 320 319 320 321 321 322 324 325 326 328 327 327 328 327 327 325 325 326 326 325 325 324 323 324 325 325 326 326 326 326 327 328 329 328 328 328 328 327 327 327 326 326 326 325 325 325 324 324 323 323 324 323 323 323 322 319 318
286 295 295 295 294 293 293 293 291 289 293 294 294 291 283 284 289 294 294 293 295 297 300 301 303 304 305 306 306 305 309 310 311 312 314 314 314 314 315 316 321 322 321 321 320 319 320 322 323 325 326 326 327 327 327 326 325 325 325 325 324 324 323 323 324 324 325 325 326 326 326 327 328 329 328 328 329 328 326 327 327 327 326 326 325 325 325 324 324 324 324 325 324 323 323 321 320
289 295 298 294 294 294 295 293 291 290 288 285 289 292 285 283 289 294 294 292 293 294 297 299 301 303 305 306 307 306 308 310 311 312 312 313 313 314 315 315 317 318 321 321 320 319 318 319 319 321 324 325 325 326 326 326 324 324 324 324 323 323 324 324 323 323 323 324 325 325 325 326 327 328 328 328 328 329 326 327 327 327 326 326 324 325 325 325 324 324 323 323 324 324 324 323 322
294 297 299 296 296 295 294 290 289 288 285 282 287 290 282 283 288 290 292 292 292 294 296 297 300 302 304 306 307 307 307 307 310 311 311 311 312 313 314 314 314 315 316 321 321 319 318 317 317 317 319 322 324 325 325 326 325 323 323 323 322 323 323 323 324 324 324 324 323 325 325 325 326 327 328 328 329 329 328 327 327 327 327 327 323 324 324 324 324 323 323 323 323 323 323 323 322
297 296 293 293 292 290 290 290 286 285 281 284 289 290 287 280 287 288 288 290 293 294 295 297 298 300 302 306 307 307 307 307 307 309 310 310 311 312 313 313 314 314 316 318 321 319 318 317 316 316 317 319 321 324 325 325 325 324 323 323 322 322 322 322 322 321 322 323 323 324 325 326 327 327 328 328 329 329 329 327 327 327 327 326 324 324 324 324 324 323 323 323 324 324 323 323 322
294 290 289 288 286 288 285 284 286 280 279 286 290 289 290 280 285 290 294 295 295 294 294 296 297 299 300 301 305 306 307 306 305 307 309 310 310 310 309 311 312 313 314 316 317 319 318 318 317 316 316 318 319 322 324 324 325 324 323 323 323 323 323 323 322 321 322 322 322 323 323 324 324 326 327 327 328 328 328 327 326 327 326 326 326 325 325 325 324 324 322 323 323 324 324 323 323
290 287 286 281 278 281 276 281 277 278 278 285 289 290 286 285 290 292 294 295 295 295 296 296 297 299 299 300 302 304 305 305 305 305 306 308 309 310 309 309 309 310 313 316 317 317 317 317 317 316 316 317 318 320 321 323 323 324 323 322 322 323 323 322 322 321 322 323 323 322 323 323 323 322 324 325 326 327 327 326 326 325 325 325 325 325 324 324 324 323 323 321 323 323 323 323 322
288 285 283 280 275 275 274 277 279 279 282 286 285 290 284 289 291 296 295 297 299 299 299 299 299 300 300 300 304 304 304 304 305 306 306 306 308 309 309 309 310 311 311 313 313 313 314 315 315 315 315 316 317 318 319 321 323 323 324 323 322 322 322 322 322 322 322 323 323 322 322 323 323 323 322 323 325 326 326 326 326 326 325 325 324 325 324 324 323 323 322 321 322 324 324 323 323
288 291 287 282 281 276 273 276 274 276 278 282 287 282 278 282 286 296 297 299 300 301 301 301 300 299 299 300 300 301 302 303 305 305 306 306 308 309 310 311 309 309 309 310 309 310 310 311 312 312 313 313 314 316 317 318 321 323 323 323 322 322 322 322 322 323 323 322 322 323 323 322 322 323 323 324 324 326 325 325 325 325 325 324 324 324 324 323 323 323 323 322 322 323 323 323 322
290 290 290 284 281 286 277 279 280 280 279 280 281 281 284 286 293 294 296 297 298 299 300 300 300 300 299 300 301 301 301 303 303 304 305 306 307 307 307 307 308 308 308 308 308 308 309 310 310 311 310 310 311 311 313 316 319 322 322 323 323 322 322 323 323 323 322 322 322 322 323 323 323 323 324 324 324 325 325 324 323 324 324 324 323 324 324 324 322 323 322 322 322 323 322 321 321
286 287 282 285 291 287 280 281 282 281 280 277 284 283 288 293 295 296 297 295 295 297 296 297 298 299 300 300 301 302 302 302 302 303 304 305 305 306 307 307 308 308 308 309 310 310 311 310 311 310 310 311 311 310 309 310 312 313 315 318 320 320 321 320 321 321 322 322 323 322 322 322 322 322 323 324 324 324 325 324 324 322 322 322 323 323 323 324 324 323 322 321 321 321 321 321 321
287 281 286 293 289 284 281 275 276 276 273 275 283 280 282 283 280 295 294 294 295 296 297 298 298 298 298 299 301 302 302 302 303 303 302 303 304 304 305 307 307 308 309 308 307 305 306 307 308 308 308 308 309 310 309 309 309 309 310 313 315 319 320 320 320 321 322 322 321 321 320 321 320 321 323 322 322 321 322 320 323 323 323 321 320 323 324 324 324 323 322 322 322 321 320 320 320
288 285 294 285 279 279 282 278 271 269 271 272 278 280 281 284 285 290 289 291 293 295 297 297 297 298 298 298 299 300 302 303 303 303 303 304 304 305 305 307 304 303 304 304 304 304 305 306 307 307 307 308 308 309 309 310 309 312 313 314 315 316 317 318 318 318 319 320 319 319 318 317 318 317 320 320 319 318 319 320 320 320 323 323 323 323 323 323 322 321 321 321 321 321 320 319 319
293 293 289 287 286 281 280 279 279 277 271 272 273 277 276 285 286 290 290 293 294 294 294 296 298 298 299 298 301 302 302 303 303 303 303 304 303 301 301 302 302 302 302 303 303 303 304 305 305 305 306 306 306 307 308 308 308 309 308 309 310 311 312 313 313 315 314 314 313 314 314 313 312 313 314 316 316 317 319 322 322 321 321 322 322 322 322 321 321 321 320 320 320 320 318 317 317
283 284 283 285 282 287 285 284 281 276 272 273 272 272 276 284 289 290 291 293 294 295 295 297 298 299 299 298 300 302 303 303 303 303 303 303 303 302 301 301 300 300 300 302 302 303 303 304 304 304 305 305 305 306 306 306 307 307 307 307 308 309 310 311 312 310 309 309 309 310 311 312 312 312 312 312 312 314 316 316 318 316 317 317 319 319 320 320 319 319 318 318 317 317 317 315 315
287 286 283 286 283 280 276 275 285 280 278 273 273 271 278 288 296 295 295 296 296 297 297 298 298 299 299 299 299 300 302 302 303 302 301 300 301 301 299 299 300 299 299 300 301 302 302 303 303 303 304 304 303 304 304 305 304 305 305 306 306 307 309 309 307 306 306 307 308 309 309 308 308 309 311 311 312 312 312 311 310 311 312 314 315 315 316 318 317 317 317 318 317 316 315 315 314
Wind_Speed
13 11 9 10 7 4 4 2 2 2 2 6 6 3 1 1 2 0 2 3 3 3 3 2 2 1 4 3 3 4 10 5 2 1 2 2 4 5 6 15 13 14 13 10 9 8 8 9 9 12 13 13 12 12 11 10 9 6 9 8 8 8 8 7 8 9 10 9 9 9 9 9 8 8 9 7 6 9 8 8 8 7 9 8 10 12 12 12 11 12 12 11 11 10 10 10 10
10 10 11 8 5 1 2 4 2 3 4 5 8 2 4 3 1 1 1 4 5 3 2 4 2 4 4 4 4 1 9 6 5 5 3 4 5 4 6 14 14 13 11 9 9 8 7 7 10 10 12 12 11 12 12 12 9 7 7 10 8 8 8 7 7 8 9 10 9 9 9 9 8 8 8 7 6 9 9 9 9 9 9 10 10 11 10 11 11 10 10 10 10 10 10 10 9
10 9 9 6 5 3 4 2 3 3 4 4 4 4 2 4 0 5 11 10 8 5 3 4 4 2 1 2 3 1 3 9 10 7 3 5 7 3 5 13 12 13 13 9 9 8 7 7 10 10 11 12 12 8 9 11 10 9 7 6 8 7 7 8 8 9 7 10 9 9 9 9 8 7 8 8 7 7 7 8 9 8 8 9 9 9 10 9 10 10 10 9 9 9 10 10 9
8 8 6 3 3 1 2 2 4 5 5 5 4 2 3 3 7 9 6 6 5 5 3 2 2 1 1 2 3 1 6 3 7 9 5 7 4 7 4 11 14 11 10 9 10 8 7 9 10 10 10 11 12 10 7 10 10 10 8 5 6 6 7 5 7 9 8 10 9 9 8 8 9 7 7 7 7 7 8 8 8 8 7 7 9 9 9 9 9 9 9 9 9 9 9 9 9
8 6 5 1 2 2 2 2 4 4 6 2 2 1 4 2 9 8 5 4 4 4 3 2 1 0 2 2 1 1 1 6 5 7 6 5 8 7 6 9 10 12 10 9 10 10 9 14 10 10 11 11 11 12 9 10 10 9 8 8 6 5 6 6 8 8 7 9 9 9 9 8 8 8 7 7 7 7 7 7 7 6 7 7 8 8 7 8 8 8 8 9 8 8 8 7 7
9 4 4 2 2 1 1 3 4 6 7 0 2 3 2 4 7 7 5 3 3 2 1 3 1 4 1 0 3 2 1 0 4 5 8 4 13 10 6 10 10 10 9 8 10 9 10 15 11 11 11 12 11 11 12 11 10 9 8 7 7 4 4 5 5 7 7 9 9 9 8 9 8 7 7 7 6 6 7 7 6 5 5 6 7 7 7 7 7 7 7 7 8 8 7 6 6
6 6 2 2 3 2 2 4 6 7 2 5 1 5 5 4 7 6 5 4 1 1 1 1 3 0 2 2 5 4 4 4 3 5 6 8 9 10 8 9 10 10 9 8 8 11 12 16 12 11 10 11 11 10 10 11 11 9 8 7 7 6 4 6 7 8 7 8 8 9 9 8 8 7 7 6 6 6 6 6 6 5 4 4 5 7 6 6 6 7 6 7 7 6 6 4 4
6 2 3 3 3 2 3 5 7 7 0 3 4 5 3 6 4 4 5 4 4 3 3 3 1 2 4 6 3 1 5 5 8 10 13 9 9 8 11 7 10 10 9 7 9 9 13 15 12 10 9 11 11 11 11 10 10 9 9 8 7 6 4 3 6 8 8 8 7 9 9 8 8 7 7 7 6 6 6 6 6 5 4 3 4 5 6 5 5 5 5 5 6 6 5 4 3
5 3 2 2 4 3 4 5 7 6 2 5 6 5 5 3 3 4 5 1 6 2 5 3 2 1 1 2 5 4 3 4 8 11 10 9 8 9 7 7 8 9 7 9 9 10 9 12 11 9 9 9 10 11 10 10 10 10 9 9 8 6 5 3 5 6 8 8 8 9 9 8 8 7 7 7 6 6 6 6 5 5 5 4 3 4 5 5 4 5 5 4 4 4 4 3 3
5 3 2 1 3 5 4 5 5 5 2 6 3 6 4 2 2 2 5 3 3 1 5 5 3 4 1 5 4 3 3 6 9 8 8 8 8 8 6 8 8 8 8 11 9 8 7 11 10 9 8 8 9 9 10 9 9 10 10 10 8 6 5 4 6 7 8 9 9 6 8 8 8 8 8 7 6 6 6 6 5 5 5 4 3 4 4 4 4 4 4 4 3 3 2 2 1
4 3 2 2 3 5 6 6 6 4 3 6 1 5 4 3 2 3 2 3 6 2 5 6 2 3 3 5 3 2 8 8 9 10 9 9 8 7 6 9 8 7 9 12 10 8 7 6 10 9 8 8 7 7 7 7 8 9 10 8 8 6 5 4 5 7 6 8 5 8 5 8 8 8 8 7 6 6 6 6 5 5 5 5 4 3 4 3 3 4 3 4 3 3 2 1 0
4 4 1 3 4 5 5 4 5 2 5 4 3 7 3 4 2 2 2 3 4 2 5 5 0 2 3 3 1 5 7 7 8 9 9 9 7 7 6 6 7 6 7 7 10 10 7 6 6 7 9 8 7 5 5 7 8 9 8 8 7 6 5 4 5 5 7 7 9 9 8 7 9 8 7 5 4 4 5 6 5 5 4 5 5 4 3 3 3 4 4 4 4 4 3 3 2
4 4 5 4 5 6 7 9 2 4 3 1 4 4 5 4 4 3 3 2 6 2 4 8 2 1 1 1 3 7 8 8 9 9 9 8 6 6 4 5 7 6 7 5 7 11 10 7 5 5 5 8 6 6 5 5 8 7 5 7 6 7 5 4 4 5 5 7 7 7 8 7 8 8 8 7 6 4 5 5 4 5 5 5 5 4 4 5 4 4 4 4 5 5 5 5 5
3 3 4 5 4 7 7 5 6 5 3 4 3 4 4 3 3 3 2 3 4 4 2 8 1 1 1 6 5 6 6 9 11 8 7 7 6 5 4 7 6 5 6 3 6 9 9 9 7 7 6 4 4 5 5 4 7 7 5 5 5 4 3 3 3 4 5 5 6 5 7 8 7 7 7 7 7 6 4 4 3 3 5 5 5 5 5 5 5 5 5 5 5 6 6 6 7
2 3 2 3 5 5 5 4 4 4 0 2 2 3 3 1 2 1 2 4 4 4 1 4 1 1 2 2 6 6 9 11 11 9 7 5 5 3 4 7 8 5 7 4 5 7 8 9 8 8 7 5 5 5 3 4 6 6 6 5 6 6 4 4 4 5 5 5 4 5 6 7 7 7 7 8 8 8 7 6 5 2 6 6 6 6 6 6 6 6 5 5 6 6 6 7 7
3 3 2 3 5 5 4 6 5 5 0 2 2 3 4 3 1 1 0 3 2 1 2 2 1 0 3 9 5 11 13 12 10 9 8 5 4 3 2 4 6 6 5 4 5 4 7 7 8 7 8 7 5 6 6 6 7 8 6 5 5 6 6 5 4 5 5 5 5 4 5 5 6 6 8 7 9 9 9 8 7 5 5 7 6 6 6 6 6 6 6 6 7 7 7 7 7
2 2 3 3 7 6 4 6 4 3 4 2 1 1 2 3 3 0 1 0 2 3 1 3 2 1 5 6 10 11 12 11 10 10 8 6 4 2 1 2 6 6 5 5 3 5 5 6 7 7 8 9 8 8 7 8 9 10 8 8 6 6 6 6 6 5 5 4 6 4 4 3 3 4 5 5 8 6 9 11 11 10 8 7 7 7 7 7 7 7 7 7 8 8 7 6 5
2 3 4 6 5 8 5 8 3 1 1 4 4 2 3 3 2 2 1 1 2 4 2 4 4 6 8 8 10 11 11 11 10 11 9 8 5 4 4 3 3 7 7 7 6 5 5 6 6 6 8 9 7 6 5 6 7 9 7 6 5 5 5 6 5 3 5 4 6 6 4 4 5 5 6 7 6 7 8 10 8 8 8 7 5 6 8 8 8 8 8 9 9 8 7 4 4
5 3 5 7 6 7 8 7 5 2 2 1 7 1 2 1 7 3 3 3 4 3 3 5 5 9 7 7 11 11 11 10 11 10 12 11 9 10 7 5 4 4 7 7 7 6 5 4 6 6 6 8 7 5 4 5 8 6 6 7 6 7 6 6 5 5 4 5 6 5 6 5 5 5 6 8 6 9 8 10 9 9 9 9 8 7 5 6 8 9 10 9 9 9 5 5 5
7 5 7 7 6 8 10 9 8 2 2 5 2 3 0 4 4 4 2 3 8 7 5 5 7 9 9 9 10 11 10 10 10 10 11 11 9 10 9 8 7 6 5 5 6 6 7 6 5 6 6 7 7 6 5 5 7 6 6 7 7 7 6 6 5 5 5 5 5 6 6 6 6 5 5 11 8 7 7 10 11 10 10 9 10 8 9 7 9 9 9 9 6 4 5 5 6
3 8 8 5 7 9 10 13 9 4 3 3 3 5 1 3 4 2 1 3 4 5 7 8 10 11 12 13 12 11 11 11 10 9 10 10 9 8 8 8 7 7 5 5 5 7 7 7 6 5 5 6 6 6 6 6 6 7 7 7 6 7 7 6 6 5 5 6 5 6 6 5 5 4 5 5 5 6 6 6 6 6 5 5 6 4 4 5 6 5 5 6 5 5 6 6 6
4 9 8 9 10 10 8 8 6 4 9 1 3 2 2 1 1 3 3 4 3 2 4 9 9 10 16 14 13 11 12 12 11 11 11 11 11 10 9 7 7 6 5 7 7 6 6 6 6 6 5 5 6 6 6 6 6 5 4 7 7 6 7 7 6 7 6 6 5 5 5 5 5 4 4 5 6 6 7 6 6 6 6 6 6 6 6 6 6 6 6 6 6 6 6 7 8
9 7 9 8 10 12 8 9 3 3 5 1 3 5 3 3 2 3 4 6 3 2 7 5 3 2 18 15 13 12 12 12 12 12 12 12 11 10 10 9 10 9 8 7 7 6 7 6 5 6 6 5 6 6 6 6 6 5 5 4 5 6 6 6 6 6 7 6 5 5 5 4 5 4 4 3 4 5 5 7 7 7 7 7 7 7 7 6 6 6 6 7 7 7 8 7 5
10 8 6 11 12 12 9 13 1 1 3 4 3 5 4 1 5 4 6 5 8 2 3 5 4 12 14 12 12 13 13 13 13 13 13 13 14 13 10 10 9 8 7 7 7 7 8 9 7 6 7 6 5 6 5 6 6 5 5 4 5 4 5 6 6 5 5 7 6 6 6 5 5 6 6 5 5 4 5 5 6 7 7 7 7 7 7 7 7 6 6 5 6 7 6 4 3
9 11 11 8 8 10 11 12 12 6 2 3 6 6 5 4 5 3 5 4 3 2 4 5 3 7 10 12 10 11 12 11 11 11 9 7 8 9 7 6 6 8 9 8 7 8 9 9 8 8 6 8 6 6 6 6 6 6 5 4 5 6 5 5 6 6 5 4 5 6 6 6 5 6 6 6 6 6 6 5 5 6 6 6 5 6 7 6 6 4 5 5 5 3 3 4 4
7 7 5 5 10 11 9 4 6 6 5 2 6 7 7 8 7 9 7 4 3 3 4 4 5 4 6 9 9 9 10 12 11 10 11 9 7 9 10 8 6 8 9 9 8 7 8 9 10 10 8 8 7 6 6 6 6 7 7 6 6 6 6 4 4 6 6 6 5 5 5 6 7 6 6 6 6 6 6 6 6 6 6 6 6 6 6 6 5 4 5 4 3 4 4 4 4
6 7 8 10 10 13 11 11 8 6 5 4 7 7 7 7 6 5 4 7 9 8 5 5 5 5 5 5 8 8 9 10 12 10 8 8 8 9 9 8 7 7 9 9 9 7 7 10 10 10 9 7 7 7 7 6 6 6 7 7 6 6 6 6 5 5 6 6 6 5 5 5 5 5 6 6 6 6 5 6 7 6 7 6 5 5 6 6 5 5 6 6 6 5 5 6 6
7 8 9 9 10 9 8 9 8 4 5 6 8 11 8 9 7 8 4 1 4 6 10 7 5 5 5 5 6 7 7 8 8 8 12 11 9 8 8 9 9 6 8 9 8 7 7 10 10 10 10 9 8 8 7 8 7 6 6 7 7 6 6 6 6 6 6 6 6 6 6 7 6 5 5 5 6 7 6 6 5 6 6 6 6 5 5 5 6 6 7 5 4 4 6 6 6
7 7 8 9 9 10 10 10 6 4 7 4 3 8 12 9 12 6 6 6 5 2 3 3 5 6 5 6 6 6 7 7 8 8 10 9 8 9 11 10 10 9 6 8 9 9 10 9 10 10 10 9 9 9 8 8 7 7 7 7 7 7 7 7 7 7 6 6 6 7 7 7 7 7 6 6 6 6 6 6 6 6 6 6 6 6 6 5 4 4 4 4 4 4 5 6 5
3 6 5 8 9 13 12 9 8 10 7 5 3 10 12 11 12 11 9 9 9 6 5 4 4 4 6 5 6 6 6 6 7 9 8 8 9 9 10 10 11 10 8 7 8 11 9 7 7 8 10 11 11 9 8 7 7 7 7 6 7 7 7 7 7 6 7 7 6 7 7 7 7 8 7 6 6 6 5 6 6 6 6 5 6 7 7 6 6 5 5 5 6 6 6 6 6
4 3 5 7 6 12 7 9 9 14 8 10 7 13 11 7 8 11 12 12 9 11 7 6 6 5 4 5 6 7 7 7 8 8 9 9 9 9 10 9 10 10 8 8 11 10 10 9 9 8 11 11 11 10 9 8 7 7 7 7 7 7 7 7 7 7 7 7 7 7 7 7 7 7 7 7 6 6 6 6 6 6 6 5 6 6 6 6 7 7 6 7 6 6 6 6 7
5 4 7 6 9 10 2 10 14 15 7 12 9 13 13 7 6 6 14 14 12 12 11 10 8 7 7 5 6 6 6 7 7 8 9 10 10 9 10 10 10 10 10 10 9 9 11 10 10 8 11 11 12 12 9 8 9 8 7 7 7 7 7 7 7 7 7 6 7 7 7 8 7 6 6 6 7 7 7 7 7 6 6 6 6 6 6 7 6 7 7 7 7 7 6 7 7
6 8 4 6 8 8 4 10 9 15 10 12 18 10 1 7 10 9 8 11 15 12 13 11 11 11 9 7 6 6 5 7 7 8 9 9 8 8 9 9 10 11 10 9 10 10 10 10 11 10 11 12 11 12 10 8 8 8 8 8 8 7 8 7 7 7 7 7 7 7 7 8 8 8 8 7 7 7 7 7 7 7 6 7 6 6 7 7 7 6 6 6 6 7 7 7 6
7 6 8 5 7 3 7 3 10 7 13 11 16 15 10 4 3 9 16 15 9 12 12 12 11 8 8 7 7 7 8 7 9 9 10 10 8 9 8 9 9 10 9 9 9 11 11 10 10 11 9 11 10 11 11 9 8 7 8 7 7 8 8 8 7 7 7 7 7 7 7 8 9 9 9 8 7 7 6 6 6 7 7 7 7 7 7 6 6 6 6 6 7 7 7 6 7
5 5 7 7 6 10 9 4 2 15 12 15 10 15 13 9 10 12 6 8 13 11 10 13 12 10 9 7 8 8 8 9 9 10 10 10 9 8 7 7 7 8 8 9 9 9 8 8 8 9 8 9 9 8 9 8 7 6 6 7 7 7 7 7 7 7 7 7 8 8 8 8 9 9 9 8 8 7 7 6 6 6 6 6 7 7 6 6 6 6 7 6 6 7 6 6 6
6 7 7 6 7 6 10 10 11 5 7 10 11 11 8 11 12 10 14 10 8 9 12 10 10 9 9 8 7 8 8 9 7 8 10 10 9 9 8 7 7 7 7 9 8 8 9 8 7 8 8 8 7 7 7 7 6 7 7 5 6 7 6 7 8 8 7 8 8 9 9 9 8 9 9 9 8 7 7 7 6 6 6 6 7 7 7 6 7 7 7 7 6 5 6 6 5
12 8 4 5 5 4 4 6 3 3 3 7 8 10 11 11 10 11 13 11 11 13 8 4 5 6 8 8 7 7 8 9 7 8 10 11 10 10 9 8 8 7 7 8 9 9 9 10 9 10 10 9 9 9 8 9 9 7 6 8 9 8 9 8 8 8 8 8 8 9 9 8 8 9 9 9 9 8 7 6 7 6 6 7 7 8 7 7 7 7 6 6 7 6 5 4 5
11 8 7 6 5 6 3 3 4 2 3 2 4 6 8 9 10 9 6 11 14 13 10 7 6 5 5 5 6 6 5 5 7 7 7 9 9 9 8 8 8 9 8 8 10 11 10 9 10 9 9 10 10 9 9 9 9 10 10 11 10 9 9 10 10 9 10 8 8 8 8 8 8 8 9 9 9 9 8 7 7 8 8 7 7 6 7 7 7 7 6 5 6 8 6 4 5
11 9 7 8 7 5 6 8 4 1 1 3 5 5 5 7 8 10 12 8 7 10 8 8 9 10 9 7 6 6 6 4 6 7 8 9 11 9 9 8 9 10 10 11 10 8 9 9 9 9 9 10 9 9 9 10 9 8 9 7 9 7 7 8 7 7 7 8 8 8 7 8 9 8 8 9 9 9 9 8 8 7 8 8 8 8 7 8 7 7 7 7 5 4 6 5 6
8 7 8 9 5 5 4 6 7 8 3 2 3 5 7 7 10 14 14 12 8 7 11 11 9 9 8 9 8 7 7 7 5 6 8 8 8 9 8 8 9 8 8 8 8 9 9 9 8 9 9 9 9 10 10 9 8 7 6 5 6 7 6 6 8 7 7 8 9 8 8 8 9 10 9 9 9 9 10 10 8 8 8 8 9 9 8 9 7 7 7 7 6 5 5 6 6
7 9 8 7 7 9 8 5 6 5 3 3 5 6 9 7 10 9 9 13 16 13 10 13 13 9 10 8 8 8 8 6 6 5 7 8 9 8 9 9 8 8 8 9 10 10 9 11 10 10 10 10 10 10 10 7 7 6 6 5 4 5 4 5 6 7 8 8 8 9 12 10 10 9 9 10 10 10 9 9 9 9 8 8 8 8 9 9 8 7 8 7 9 8 6 3 4
7 8 9 9 8 9 9 7 8 7 7 4 2 5 10 5 12 15 10 9 15 16 18 14 11 12 10 11 11 9 7 6 3 4 5 7 8 9 9 9 9 8 9 9 9 10 9 9 10 10 8 8 9 10 10 8 8 9 8 8 8 6 6 5 9 11 9 10 12 9 8 10 10 10 9 10 11 10 10 10 9 9 9 9 9 8 7 7 9 10 9 8 8 8 6 5 5
7 6 7 10 10 10 9 9 5 5 8 2 8 8 10 3 6 7 11 13 14 12 16 17 15 12 10 12 11 8 8 6 5 4 4 3 1 2 5 9 9 9 9 8 8 8 9 9 9 10 10 9 9 9 11 10 8 8 11 11 11 11 11 9 8 6 8 8 6 8 8 8 10 11 10 10 10 10 10 9 10 9 9 8 8 8 8 8 7 7 7 8 8 7 7 8 7
8 4 6 4 7 12 10 9 8 8 5 6 8 4 7 11 6 6 5 5 12 15 13 15 16 16 14 12 11 9 8 7 8 7 7 8 7 6 6 5 7 10 9 8 9 8 10 10 9 10 9 10 9 9 11 12 11 10 10 10 10 10 11 11 9 9 6 6 8 8 7 8 9 10 9 9 9 9 9 9 9 9 9 8 8 9 8 7 6 5 7 9 8 8 9 9 7
4 2 2 5 5 4 3 3 5 4 3 6 6 6 10 11 8 5 4 9 10 8 11 15 15 14 14 14 13 11 11 11 11 11 12 13 12 12 11 11 9 7 8 10 10 11 11 11 11 10 11 11 10 12 12 12 12 12 11 10 10 10 10 9 7 7 8 8 8 8 9 8 8 10 10 9 9 9 10 10 9 9 9 8 7 7 7 7 9 8 7 7 8 8 8 8 7
2 6 2 4 4 4 3 2 2 3 4 9 9 7 9 14 10 7 7 13 14 11 11 8 10 14 13 13 13 13 11 10 12 14 13 13 12 12 10 11 11 10 8 8 9 9 10 9 11 12 11 10 10 11 12 12 13 11 10 10 12 10 9 7 6 7 9 9 9 9 9 9 9 9 10 10 10 10 9 9 8 9 9 8 7 7 6 7 7 8 8 7 7 8 7 6 7
3 4 5 5 3 3 2 2 2 1 11 11 14 12 11 12 9 8 8 7 8 8 9 12 12 7 7 13 15 14 14 11 9 11 12 11 10 10 9 10 9 8 8 8 8 9 9 10 11 11 12 9 9 10 11 12 12 11 11 12 13 12 11 9 7 6 6 6 8 8 8 8 8 8 8 8 10 9 9 9 9 8 8 8 8 7 7 7 7 7 7 7 8 9 7 6 6
4 2 2 3 4 3 3 2 3 7 9 11 14 13 14 14 7 5 7 8 9 7 8 10 11 12 10 6 8 13 12 10 6 6 6 7 6 6 6 7 8 8 7 8 7 7 8 8 8 9 8 9 8 9 10 12 11 12 11 12 12 12 11 10 11 11 10 9 9 9 7 6 6 7 8 8 8 9 9 8 9 8 8 8 8 7 7 7 6 6 6 6 6 7 7 7 6
6 3 3 5 3 3 4 4 8 11 12 7 6 7 10 16 16 6 8 7 7 6 4 4 5 6 5 5 7 6 6 5 4 4 5 6 8 9 8 8 7 7 7 6 6 6 6 6 7 8 9 9 10 9 11 12 11 11 12 12 11 10 10 10 10 10 9 9 8 8 8 8 7 7 7 9 8 9 8 8 8 8 7 7 7 6 6 6 6 6 6 5 6 7 7 6 5
6 8 5 6 6 6 7 6 4 7 7 8 6 6 11 5 12 13 17 19 18 18 16 11 5 1 2 2 1 2 3 5 5 7 9 8 8 8 8 7 6 6 5 5 5 5 5 5 6 8 9 9 9 10 11 11 12 12 12 11 10 9 9 9 8 9 8 7 7 8 8 8 8 9 8 8 8 8 7 8 8 8 7 6 7 7 6 6 6 6 5 6 6 7 7 8 7
8 4 7 6 5 4 7 5 7 7 8 5 9 5 3 7 7 6 12 14 14 17 17 16 10 5 5 6 4 4 6 6 8 8 7 7 6 6 5 5 5 5 5 5 5 5 5 6 6 7 8 7 7 9 8 9 10 10 10 9 8 7 7 7 7 7 7 7 7 8 8 7 8 7 8 7 7 9 8 7 7 7 7 6 6 6 6 6 6 6 6 5 4 6 6 6 6
5 2 4 8 11 5 11 4 3 1 3 3 3 6 4 7 4 6 4 8 7 12 14 13 14 11 5 6 9 9 7 7 7 6 7 6 6 5 5 5 5 5 6 5 5 5 5 6 6 6 6 6 5 4 4 6 7 6 7 7 8 7 7 6 6 6 6 6 5 6 6 6 6 6 6 7 7 8 8 7 6 6 6 6 6 6 6 6 4 5 4 4 3 3 4 5 4
3 7 7 9 6 9 4 7 9 7 7 9 3 6 6 7 12 13 12 7 4 5 5 7 10 11 11 12 11 10 8 7 8 8 7 6 5 4 5 5 5 5 4 5 5 3 3 2 1 1 1 1 1 2 2 1 1 1 2 4 4 5 6 6 7 6 6 5 5 5 6 5 4 4 4 5 6 6 7 6 6 5 5 5 5 5 6 6 5 4 4 3 3 3 4 4 3
5 4 5 5 5 5 3 7 4 8 11 8 6 10 9 6 8 7 14 15 12 7 8 8 6 5 7 8 8 7 7 9 9 8 5 5 5 5 5 4 4 4 4 4 3 2 1 1 0 1 1 3 4 4 4 3 4 4 4 4 4 5 5 5 5 5 5 6 4 5 4 4 4 4 5 4 5 5 5 6 5 5 5 4 4 4 4 5 5 5 4 4 3 3 4 3 3
8 6 4 2 5 8 4 0 8 5 9 6 12 10 8 5 8 5 5 4 6 10 10 7 9 8 6 6 6 5 6 6 5 4 3 2 3 2 1 2 3 3 3 3 3 2 1 1 0 1 2 1 1 1 1 2 3 4 3 4 4 3 3 4 4 4 4 5 4 4 3 3 3 3 5 5 5 4 4 4 3 2 4 5 4 4 4 4 5 5 4 4 3 4 4 3 4
6 4 8 3 3 4 4 5 4 5 7 6 8 6 9 8 9 10 14 15 13 8 4 7 11 10 9 4 2 4 5 3 2 1 1 1 2 2 2 2 1 1 2 2 3 2 3 3 4 2 2 1 1 1 1 2 2 3 3 3 4 4 4 3 3 4 5 5 4 5 5 5 4 4 4 4 4 3 4 5 3 3 3 4 5 4 5 5 5 5 4 4 4 4 4 3 2
2 2 7 4 2 3 1 2 3 3 4 8 6 9 3 6 5 10 13 15 12 11 10 7 1 4 5 5 2 1 0 0 0 0 0 1 1 0 1 1 1 1 1 1 2 3 3 2 3 3 4 3 3 2 3 3 4 3 4 4 4 4 5 4 6 7 7 5 5 5 6 5 5 5 5 6 6 6 5 4 5 5 5 5 5 5 4 4 4 4 4 3 3 3 4 2 2
5 4 8 8 10 7 8 11 4 3 3 3 6 11 4 3 2 1 3 3 4 3 3 3 2 3 4 2 1 2 2 1 0 1 2 2 2 1 1 1 0 1 1 1 0 1 2 2 2 2 3 3 3 3 4 4 4 4 4 4 4 4 4 6 7 6 6 5 4 5 5 6 6 5 5 6 7 5 5 6 6 6 6 6 6 6 5 5 5 4 5 4 4 4 3 2 2
Wind_Direction
310 305 309 299 280 242 281 223 269 187 217 245 258 217 108 63 27 93 125 137 173 55 81 78 96 59 21 7 30 40 30 61 54 69 145 179 197 191 196 117 120 125 130 131 130 137 136 144 149 157 156 156 156 153 148 143 140 136 147 146 153 152 149 143 135 128 125 122 122 118 117 112 107 102 109 105 101 106 104 91 86 96 81 84 90 93 84 82 82 79 82 80 79 79 80 80 81
301 306 301 292 268 24 238 173 249 272 217 253 233 95 130 108 243 85 228 126 68 96 87 89 98 75 28 351 352 76 59 60 73 87 56 135 163 233 128 123 130 130 125 125 140 140 141 145 154 158 160 157 160 159 154 146 145 152 156 149 150 157 154 150 142 129 132 125 126 120 119 118 111 108 111 110 97 93 96 106 109 109 109 102 96 98 94 83 80 82 83 84 86 86 84 82 79
300 302 300 297 286 194 296 303 261 269 258 251 42 81 240 123 129 89 52 83 102 105 91 82 85 102 123 244 249 359 123 101 87 94 112 156 158 155 139 133 133 131 132 136 142 144 138 145 155 160 162 164 163 143 163 158 151 153 151 158 155 159 156 159 155 136 137 128 126 128 123 124 121 119 118 117 110 114 110 99 101 98 93 97 92 85 89 90 84 82 80 82 85 85 82 79 80
283 265 261 314 312 185 278 225 239 269 289 276 115 331 61 22 82 89 81 85 98 113 128 131 172 353 216 205 29 15 105 84 112 131 137 178 161 170 163 142 131 129 132 146 146 143 139 146 150 154 160 168 171 152 153 159 157 157 155 165 169 153 156 167 151 150 149 129 129 131 132 130 130 127 129 128 114 98 94 87 93 109 106 93 96 92 93 91 89 84 82 82 81 85 89 89 87
281 272 255 284 302 262 261 245 264 253 263 315 84 91 89 40 94 93 91 98 116 114 184 147 125 118 53 29 257 70 130 94 83 117 133 187 128 165 163 140 130 127 140 162 144 142 139 148 155 153 156 164 170 166 159 163 160 159 165 165 185 155 159 176 165 149 155 137 135 136 136 133 132 133 129 121 113 114 111 107 97 102 118 112 107 104 101 97 95 90 84 83 86 86 87 92 97
303 299 286 211 225 30 306 296 263 250 254 352 346 114 72 66 96 101 112 113 87 123 343 159 238 156 211 146 13 78 236 124 141 107 142 132 142 166 177 148 128 136 151 159 143 133 145 149 160 158 159 159 159 170 173 173 168 161 172 172 170 194 173 173 163 147 162 144 140 141 137 139 135 136 128 122 126 127 119 113 114 108 106 120 117 115 112 108 96 96 91 85 80 79 82 99 105
305 330 260 164 274 215 249 245 263 270 356 324 12 65 60 84 98 112 119 98 98 61 44 273 92 119 174 94 76 62 18 106 136 122 117 141 146 167 170 158 129 142 150 152 131 126 145 149 156 163 161 161 162 164 172 178 176 174 173 176 172 195 179 186 165 170 163 148 151 145 143 141 142 138 136 134 133 125 122 122 122 122 117 112 115 115 117 107 108 96 92 89 87 84 80 87 114
265 252 318 315 296 174 225 245 264 277 135 16 28 73 90 89 112 133 141 172 161 178 179 294 50 326 70 166 120 75 61 37 87 95 120 140 164 162 149 156 137 136 158 130 114 128 140 146 153 157 162 158 162 164 164 169 175 175 178 179 177 192 198 181 166 178 160 168 161 150 148 145 140 140 139 139 141 138 137 132 130 129 131 124 117 125 124 124 119 114 97 97 90 87 82 62 105
290 232 210 290 254 238 245 246 258 264 209 141 94 80 53 102 135 151 145 137 118 202 147 166 217 193 146 192 81 128 83 111 99 116 126 144 154 139 161 138 141 142 141 99 108 129 139 143 146 151 156 156 160 160 165 168 170 172 174 176 176 185 198 190 177 159 181 167 164 157 150 147 144 145 142 144 143 146 141 138 145 154 143 139 146 134 138 137 126 122 119 101 100 94 79 75 25
300 221 268 262 322 289 276 243 240 241 293 77 112 132 130 107 164 238 155 144 140 117 160 143 175 240 123 118 119 140 131 117 122 125 134 149 139 143 166 144 143 144 127 109 124 127 136 142 139 143 154 151 159 161 165 176 175 177 176 173 170 177 197 190 177 170 182 177 160 172 155 153 151 149 146 147 154 155 158 160 159 157 152 142 155 160 154 157 152 136 133 129 117 99 103 72 47
300 277 158 296 257 259 249 264 224 228 183 114 114 106 127 147 147 227 193 146 109 189 90 108 219 240 275 88 63 50 121 129 140 137 142 148 142 159 169 158 142 157 130 128 132 127 134 141 139 142 142 148 157 156 169 165 182 172 171 164 165 175 184 187 161 167 189 171 188 155 176 165 156 153 154 158 157 162 164 163 166 165 166 169 163 173 177 177 165 163 160 153 149 155 146 155 230
282 284 208 231 261 266 274 276 325 351 105 117 197 129 119 147 174 182 222 186 121 201 141 150 59 213 219 141 150 142 138 146 136 137 146 137 154 172 162 154 133 134 119 124 129 125 139 136 140 147 143 146 157 130 152 154 164 163 166 166 168 171 177 187 166 161 177 180 188 175 178 180 159 159 157 143 130 142 165 166 169 174 176 171 178 170 177 216 198 191 189 184 184 184 199 203 226
266 279 281 282 263 271 283 306 298 294 346 286 124 99 133 143 184 203 165 260 146 182 175 183 134 44 234 105 131 138 153 147 133 138 139 150 160 177 160 136 126 121 125 136 132 134 140 142 153 148 149 155 143 130 128 154 160 166 168 170 174 173 175 187 175 154 165 182 178 180 181 183 175 163 162 148 144 151 169 168 178 181 189 194 187 190 188 188 214 223 215 206 201 211 217 217 221
276 316 319 287 306 285 283 284 302 322 329 66 64 132 149 161 204 178 165 207 157 184 6 153 346 70 206 106 149 155 149 139 137 136 145 156 162 166 158 121 127 127 131 154 155 136 139 149 170 154 150 165 146 129 123 147 158 159 151 149 160 159 158 146 111 131 147 165 174 182 186 186 191 166 162 156 155 156 154 141 146 196 193 197 195 200 212 194 198 222 238 224 227 228 232 230 231
268 323 293 272 277 295 294 290 298 266 258 93 84 145 141 103 164 91 275 214 66 69 112 60 87 33 2 295 160 166 144 140 142 139 147 154 145 165 147 128 142 132 139 200 166 149 151 156 167 153 151 168 168 160 154 155 159 156 150 148 150 135 121 123 120 110 109 131 159 180 179 188 188 176 170 168 165 164 155 152 163 199 210 200 205 209 212 212 212 216 225 233 233 234 239 245 245
258 297 266 263 251 252 236 235 237 289 332 78 286 94 157 98 20 158 57 46 96 14 123 123 65 5 83 63 74 129 133 139 141 139 141 144 137 141 126 127 135 127 139 211 173 171 155 163 158 150 157 162 173 172 172 163 170 157 145 146 146 137 135 119 113 104 106 118 133 166 194 184 190 181 180 179 182 175 169 165 176 184 210 208 206 213 216 219 224 221 223 230 233 237 236 238 242
227 223 259 230 258 248 256 272 216 233 105 105 263 209 200 165 150 356 102 305 164 159 226 122 129 168 89 92 107 117 127 131 136 141 135 129 116 121 126 197 144 150 153 208 214 178 164 169 163 155 161 168 175 179 178 168 174 162 150 153 147 142 134 136 126 124 129 137 137 160 164 187 193 194 189 192 187 188 187 184 181 186 192 205 206 208 214 219 220 223 226 227 230 237 240 235 232
211 222 223 242 247 243 241 250 248 100 132 145 181 186 278 155 163 153 70 229 263 135 189 124 77 77 110 117 119 125 130 139 149 153 145 145 155 163 182 216 177 169 165 182 218 185 186 170 177 167 164 167 173 180 174 162 164 165 161 156 165 160 158 147 148 173 186 172 183 168 194 199 204 194 193 203 189 194 190 194 191 191 191 198 208 217 222 224 225 226 229 228 230 232 232 219 225
217 228 226 238 225 249 269 273 264 314 333 18 100 250 314 280 172 136 172 206 198 216 187 151 143 106 108 123 122 132 143 150 159 165 156 160 169 172 180 191 198 189 169 174 195 192 191 185 173 187 163 163 165 169 164 135 154 168 170 167 172 177 181 181 181 196 198 196 175 183 193 207 203 205 197 188 189 185 188 193 190 194 197 199 202 201 204 218 232 232 227 228 228 226 221 220 232
211 242 234 232 250 272 274 276 255 168 278 314 299 103 230 329 352 106 236 249 179 210 190 184 183 150 149 144 146 143 159 159 164 171 169 168 180 174 183 182 192 210 182 181 182 194 186 188 191 186 172 159 160 167 163 155 155 175 180 172 173 178 184 184 196 192 203 206 184 187 196 206 205 210 171 173 170 173 180 184 193 197 201 208 210 204 207 212 220 228 230 230 229 223 212 224 231
173 220 235 244 233 239 247 271 290 302 304 257 263 110 237 256 261 173 173 239 257 213 206 193 193 170 160 159 157 155 162 166 175 179 177 176 185 180 183 185 190 194 186 175 187 197 192 184 179 194 177 163 160 171 165 174 174 179 174 171 181 174 179 181 184 202 202 203 205 191 203 198 196 187 150 151 165 169 170 177 186 198 201 209 214 231 218 220 221 222 227 227 217 217 223 229 235
264 233 229 241 268 277 276 263 358 298 233 283 339 289 245 39 267 246 251 251 243 276 220 196 179 178 158 160 165 163 165 169 181 181 183 183 189 186 180 176 177 186 184 180 193 191 201 190 179 180 182 175 164 174 173 177 170 185 185 174 174 178 167 173 185 188 204 205 197 204 210 198 186 184 190 179 183 189 162 173 184 193 198 210 192 214 217 220 212 214 216 213 217 221 226 227 233
235 244 262 251 245 256 267 294 44 330 342 62 236 250 266 176 241 224 238 246 250 66 31 32 63 187 160 158 153 165 167 174 181 187 185 188 190 196 187 177 175 181 185 188 181 189 191 200 185 167 183 185 172 175 174 174 174 182 180 180 163 174 167 169 183 189 190 196 195 195 209 211 181 176 206 217 210 189 192 177 181 189 200 207 193 198 213 225 210 203 214 213 207 214 226 230 215
249 254 231 246 261 263 275 280 158 28 12 298 293 323 299 148 233 214 233 228 252 67 74 54 48 95 123 137 160 167 173 177 185 190 191 192 189 193 190 184 175 170 175 183 178 184 182 194 188 172 178 187 185 182 180 176 173 177 183 179 177 183 170 172 182 198 203 189 185 192 197 209 189 183 198 208 212 204 209 199 189 186 196 202 176 189 205 214 220 204 208 219 203 207 217 238 241
246 241 242 260 257 246 253 261 272 286 248 284 299 287 263 260 260 288 253 254 222 250 104 110 97 114 137 148 167 173 177 180 186 192 193 197 195 190 196 196 176 162 173 182 179 181 180 183 184 185 181 186 186 181 194 186 171 172 180 192 190 180 186 183 175 181 209 213 189 187 184 206 207 191 193 199 203 208 208 207 204 205 197 199 191 200 197 208 211 213 223 227 220 233 247 257 245
253 299 310 263 269 284 269 278 313 301 289 253 268 256 260 262 286 263 255 239 260 253 146 139 132 147 161 159 174 178 183 184 185 184 190 192 190 186 191 196 186 174 177 176 182 184 170 175 185 187 185 187 182 182 191 193 182 172 180 196 204 174 185 193 185 184 193 200 209 195 191 186 198 203 198 198 200 209 202 198 203 210 204 196 193 208 201 196 202 221 239 234 223 226 235 242 236
357 319 334 317 293 272 267 262 248 256 265 280 260 259 259 256 240 247 222 233 226 239 199 157 157 174 181 179 175 184 186 190 187 181 178 185 190 190 190 190 195 187 168 177 180 182 169 172 184 186 186 182 179 185 188 196 191 184 180 181 192 181 176 184 212 201 191 189 199 199 202 200 197 203 199 199 201 207 209 201 205 203 205 201 193 202 205 197 195 208 219 218 219 217 229 236 238
303 307 302 296 291 289 277 272 240 242 251 242 258 266 262 259 252 245 248 16 7 207 220 177 176 191 192 193 181 183 191 192 185 176 184 182 189 187 189 189 194 189 176 180 175 172 173 178 182 185 187 184 184 186 183 191 195 193 178 177 187 187 177 188 200 206 204 195 191 198 195 196 200 213 209 203 199 202 208 208 205 197 204 208 204 209 213 203 198 210 213 209 209 209 222 225 227
281 299 292 289 296 279 258 251 256 255 254 258 289 283 256 238 238 241 234 271 264 326 286 213 199 194 199 195 197 182 191 188 175 188 192 188 183 186 192 189 186 192 194 177 171 171 185 181 181 185 183 186 191 189 187 189 189 187 185 185 186 184 186 189 195 199 204 201 196 196 194 190 193 203 213 211 205 199 200 207 210 207 202 199 203 206 208 213 218 215 216 208 216 224 240 252 254
262 252 265 296 274 268 251 255 237 240 244 236 214 256 242 231 231 226 234 219 240 238 221 235 244 208 198 204 195 191 183 188 184 189 189 187 185 189 194 190 186 188 186 180 174 178 180 180 176 179 184 188 192 193 187 187 190 188 187 186 184 182 187 192 200 199 198 201 197 198 196 193 191 198 202 212 207 204 207 206 205 207 203 198 198 196 197 201 217 220 225 220 225 219 227 235 241
242 232 210 231 248 250 227 234 230 233 202 205 204 252 250 243 223 212 224 232 224 230 225 206 218 225 211 207 204 188 186 188 194 184 192 188 187 190 193 189 185 184 181 182 186 180 174 179 179 182 182 188 187 194 190 188 188 184 184 186 189 185 189 196 199 201 200 197 193 200 197 197 196 193 196 198 204 202 210 218 217 209 201 203 205 200 188 199 203 213 205 214 222 223 222 226 230
211 241 222 214 227 256 238 214 218 234 192 196 205 247 249 240 250 238 204 221 217 225 227 218 211 212 213 210 204 191 187 184 196 194 192 192 186 189 187 189 184 183 185 185 182 176 180 180 179 182 179 187 185 190 193 187 188 186 184 190 191 189 190 197 200 199 199 194 196 199 196 195 197 199 197 194 199 202 204 211 215 210 206 202 205 203 196 204 204 207 208 202 215 228 216 228 224
218 221 239 216 210 255 255 231 228 216 223 197 200 244 154 229 236 262 280 216 218 218 221 226 212 215 207 204 201 193 190 180 190 201 193 192 194 186 184 188 185 186 185 181 180 183 185 178 176 182 180 188 183 187 192 195 186 186 189 192 193 188 195 200 202 195 194 197 198 198 192 191 195 199 201 200 200 202 203 208 209 206 203 204 204 201 203 202 203 206 214 210 203 218 220 231 234
221 205 240 240 249 233 226 221 210 233 206 223 206 228 233 287 233 213 230 257 239 218 222 226 222 218 211 196 198 189 192 189 189 196 199 190 193 190 182 184 183 182 184 181 180 182 185 180 181 186 182 188 187 184 191 195 194 185 189 192 194 194 197 200 200 193 196 195 195 199 194 192 196 197 200 204 206 208 206 205 209 208 202 202 203 203 210 200 203 202 219 218 210 213 225 226 234
214 197 225 237 247 262 286 290 189 214 214 224 215 225 232 235 259 280 276 236 248 251 220 217 219 216 216 202 196 194 192 196 194 191 194 189 184 188 185 177 180 176 178 181 177 180 182 183 177 183 184 184 188 181 185 191 195 198 191 190 196 202 196 199 196 200 198 195 200 198 197 197 196 198 200 200 204 206 210 210 207 209 203 200 199 206 209 209 206 206 209 219 218 217 214 221 230
220 234 235 224 220 223 230 248 269 237 219 226 227 243 226 220 240 247 262 267 271 266 258 227 215 216 225 215 201 196 195 200 195 188 188 185 179 179 182 173 177 179 174 179 181 175 181 183 175 180 188 181 181 182 173 184 188 198 199 200 206 205 202 198 204 207 201 204 201 197 198 198 193 196 198 199 203 202 205 209 209 206 206 193 198 204 212 206 209 211 216 208 223 233 223 224 226
283 299 324 312 299 268 237 242 164 232 249 237 240 242 253 262 240 226 231 249 252 263 269 250 214 219 229 227 218 204 195 198 193 190 184 181 177 175 176 172 173 176 179 176 182 184 181 182 175 184 185 181 181 184 183 181 187 192 202 206 210 203 206 206 209 209 211 209 202 200 197 197 194 191 195 196 203 201 203 202 202 208 204 199 198 208 205 210 211 209 209 204 213 230 245 222 229
256 274 280 273 266 263 294 306 102 288 153 240 231 264 263 260 270 270 233 222 241 243 245 257 270 256 253 250 243 236 219 196 186 189 175 170 170 170 168 167 163 172 190 180 187 191 185 180 185 183 175 187 190 188 185 188 193 193 190 199 200 202 201 202 211 206 208 210 208 203 198 196 196 193 193 195 198 198 201 202 201 203 202 205 205 204 204 206 206 203 194 215 207 215 234 209 223
248 248 258 260 257 290 294 307 308 150 35 301 342 302 277 271 276 277 273 260 244 247 238 226 232 249 259 260 261 258 251 243 205 175 168 159 163 166 166 170 179 182 183 188 190 181 183 189 191 183 180 183 190 189 186 196 194 195 193 200 197 207 211 209 212 207 201 207 208 204 198 196 195 200 193 193 195 198 200 202 207 199 201 199 202 209 207 209 205 202 194 197 214 220 219 208 210
243 239 236 246 265 256 261 240 253 264 221 216 204 264 260 262 257 260 271 276 271 258 256 249 228 233 239 243 247 252 251 247 233 176 172 164 163 165 165 176 182 180 176 186 185 184 187 192 192 186 185 182 188 195 197 197 193 192 197 193 193 197 202 200 199 196 196 197 205 200 205 199 196 200 195 191 197 199 199 202 201 205 206 199 201 205 207 213 207 206 200 198 186 233 215 227 199
233 234 248 247 241 246 258 290 295 288 267 18 333 278 267 246 262 260 241 252 267 270 262 249 244 235 241 255 247 239 248 241 241 214 177 170 176 182 184 190 183 183 184 187 187 187 191 191 190 188 188 188 189 193 194 182 173 185 189 205 207 200 209 186 184 203 196 195 198 201 207 200 197 196 197 197 196 201 201 201 200 205 205 205 201 205 207 209 208 206 199 202 204 212 229 229 226
254 233 233 247 260 273 267 256 255 270 270 215 200 284 259 225 231 240 238 229 232 238 248 254 244 229 225 239 240 235 239 246 235 249 212 192 183 184 192 190 188 190 195 199 189 191 185 184 184 186 187 187 189 191 188 183 183 182 177 184 203 201 209 198 200 201 194 197 204 202 202 198 197 198 198 200 198 198 202 202 201 200 205 205 207 209 206 198 202 200 201 201 210 210 215 222 248
244 234 216 234 250 261 260 271 280 256 256 214 175 223 278 209 244 227 223 228 239 231 229 239 241 238 224 226 238 230 224 240 251 253 282 287 259 190 184 187 194 191 204 194 195 189 185 183 184 183 187 189 189 187 182 182 190 190 193 195 197 198 203 216 212 203 201 209 195 197 201 197 200 199 202 200 201 200 202 202 203 206 206 205 205 208 211 210 201 198 190 196 203 201 201 227 224
245 263 297 296 243 228 238 249 252 272 285 290 290 264 277 283 230 262 277 251 228 231 233 234 237 240 233 228 230 233 226 222 227 232 236 241 235 226 239 216 185 198 198 189 193 187 188 189 185 185 187 190 190 186 181 184 190 195 198 203 201 205 208 216 205 209 203 194 200 203 197 203 201 202 202 202 201 198 200 204 205 207 209 207 198 207 209 204 205 206 192 194 193 195 200 213 221
258 278 41 291 293 308 291 257 264 271 317 259 235 247 271 258 255 233 249 267 266 260 231 228 236 236 233 230 229 232 227 220 219 224 230 234 237 235 230 231 227 208 193 194 191 191 193 193 192 191 193 193 194 188 186 188 191 194 199 202 207 214 214 219 205 196 200 201 203 199 199 201 199 202 202 202 202 200 198 202 201 205 208 210 202 204 203 195 199 201 201 190 191 197 200 205 209
251 346 323 273 296 300 270 251 276 290 268 247 240 218 249 260 256 243 215 234 243 241 255 262 230 229 225 221 224 231 234 227 223 221 222 226 230 231 225 226 227 222 219 200 195 187 190 190 194 195 202 197 195 192 192 192 194 194 198 202 208 211 209 215 201 197 198 197 205 196 197 196 197 195 198 202 201 202 197 197 199 202 205 206 206 208 201 200 197 195 197 201 195 195 195 195 205
241 214 299 316 300 271 257 153 172 324 245 241 234 226 232 270 237 225 224 228 227 229 233 237 251 249 225 214 215 218 224 228 221 222 222 222 222 221 215 216 218 216 211 198 188 189 188 190 192 196 203 200 196 196 194 198 197 197 201 203 207 207 204 202 199 201 196 192 198 202 195 196 188 189 190 196 200 196 199 195 199 201 197 199 203 204 206 200 200 196 199 198 194 197 195 200 204
262 270 239 287 269 242 269 210 147 237 247 238 230 220 223 248 252 208 252 273 259 237 223 225 229 235 240 229 213 212 215 218 217 208 220 227 237 235 218 216 216 216 216 215 201 187 184 188 185 193 199 198 199 201 200 204 200 203 206 206 208 207 199 196 198 203 201 203 199 203 196 184 188 183 186 192 199 196 196 196 196 198 202 203 208 206 203 202 199 200 201 195 190 189 188 192 203
244 253 256 240 250 182 235 174 225 214 241 235 234 207 234 236 259 266 285 274 265 249 277 265 241 230 232 250 216 195 178 180 211 228 225 225 226 234 237 237 230 221 218 199 182 175 175 175 182 188 203 201 205 203 204 205 204 205 206 210 213 207 206 203 201 204 201 202 197 194 188 192 186 189 190 190 196 192 187 190 190 196 201 204 204 201 207 201 198 198 202 202 195 193 189 186 195
234 219 204 217 235 232 246 224 225 259 254 247 230 197 244 266 263 240 238 244 257 271 276 279 283 289 308 315 304 189 194 200 219 228 227 222 221 226 226 225 219 215 189 176 175 180 189 198 202 203 214 207 209 210 210 207 207 207 206 208 209 201 206 205 207 205 203 200 191 193 191 187 187 193 189 191 185 184 187 191 190 195 196 195 196 197 195 199 195 197 199 204 201 196 184 191 205
223 220 207 230 231 225 240 224 226 220 245 243 197 186 215 179 227 213 218 237 232 236 240 248 248 226 222 247 225 220 222 220 223 231 233 227 223 209 202 188 176 181 193 194 199 208 202 213 211 218 227 226 221 221 218 215 213 209 207 207 204 199 202 200 208 201 198 197 191 187 190 184 183 188 187 185 170 177 183 185 188 189 192 191 191 194 193 191 196 195 196 200 185 181 181 178 184
245 238 254 226 226 215 241 245 264 343 336 310 205 192 230 225 311 266 244 245 219 228 233 228 232 234 225 225 237 240 226 227 235 240 243 234 216 212 213 212 203 202 209 211 211 211 211 217 213 215 216 225 229 230 233 220 214 202 197 192 196 194 193 191 191 193 193 181 184 176 180 180 180 172 170 167 169 167 174 179 182 187 184 187 186 188 189 192 188 179 170 144 144 135 151 172 176
201 201 218 236 251 241 273 285 272 281 265 248 260 304 290 311 289 286 288 280 272 226 248 229 226 230 230 232 233 228 225 217 228 235 238 238 238 229 213 210 208 200 201 207 200 179 174 177 189 237 262 297 283 278 256 261 274 216 217 190 183 186 185 187 186 186 187 179 171 170 164 166 153 146 150 150 156 154 162 167 174 178 178 181 189 184 175 176 168 155 156 146 153 135 132 159 162
299 224 241 223 59 96 235 244 213 227 249 257 218 216 240 239 281 202 232 250 251 227 222 236 234 223 227 236 239 229 215 214 216 223 232 232 225 225 225 219 207 193 181 149 107 74 75 69 52 279 266 235 240 230 239 234 229 230 238 240 226 205 198 190 177 174 166 151 146 141 132 140 153 152 127 125 126 135 142 155 162 175 182 181 173 168 160 158 150 156 157 152 157 142 152 160 164
236 259 1 1 241 230 189 13 229 234 232 244 235 243 251 221 252 326 305 268 244 224 221 218 229 220 231 248 248 239 223 217 222 228 223 239 262 291 313 119 71 79 78 98 97 92 92 150 148 208 262 258 186 149 165 212 212 208 204 202 190 171 157 158 148 131 129 135 144 136 124 112 96 96 117 120 108 109 129 139 128 140 155 162 154 137 137 136 139 134 134 140 145 141 147 175 194
199 329 288 153 285 256 217 209 257 239 260 249 258 209 240 217 239 255 264 269 280 296 271 223 226 211 212 217 46 37 33 44 68 84 94 59 43 59 57 66 99 118 131 144 150 159 178 183 169 190 138 159 133 129 93 100 64 93 86 79 72 83 70 80 97 98 76 75 67 83 89 79 71 64 65 74 95 122 143 140 141 152 128 125 129 122 114 114 118 126 127 136 155 156 160 159 153
249 183 259 277 240 284 5 319 235 241 236 236 267 256 226 232 225 237 240 254 259 258 258 277 207 97 100 110 96 41 52 346 37 38 331 1 357 83 79 65 77 61 54 121 172 193 178 167 171 170 162 146 132 125 102 90 81 74 83 79 76 73 74 75 71 70 82 70 64 67 72 87 76 53 55 69 68 48 48 70 93 69 64 62 68 73 78 95 94 98 101 99 92 103 108 97 96
271 189 232 244 241 253 251 262 180 219 233 236 235 252 254 266 70 16 346 7 14 344 21 77 85 102 98 114 179 194 189 168 93 358 0 335 308 290 94 62 65 138 164 201 230 118 150 155 125 98 96 105 115 94 105 97 85 83 85 92 85 78 78 70 71 69 75 74 67 71 81 77 73 54 55 72 70 57 65 75 76 73 69 67 67 63 59 73 89 96 92 89 92 96 97 94 84